Tennant Creek Airport
YTNK : now visible

Airfield :











YOU CAN JOIN US ON...

 
LOGIN :

Register | Disclaimer

   EN    FR    IT 

 









Legend :    VFR   Marginal VFR   IFR   Intensive IFR   Very Intensive IFR
Visi :
Ceiling :
>= 8 km
>= 3000ft
5 to 8 km
1000 to 3000 ft
1500m to 5 km
500 to 1000 ft
800 to 1500m
200 to 500 ft
< 800m
< 200 ft
Symbols :   Thunderstorms  Fog  Heavy snow  Heavy precipitations  Wind > 20 kt






- Airport Elevation : 1236 ft
- IATA code : TCA


YTNK - Tennant Creek

CURRENT METAR :
  • 280730Z AUTO 14017G27KT 9999 // SCT095 39/14 Q1002

EXPIRED METARs :
  • 280708Z AUTO 15018G28KT 9999 // NCD 39/15 Q1002
  • 280700Z AUTO 15018KT 110V170 9999 // NCD 39/15 Q1002
  • 280630Z AUTO 15018G28KT 9999 // SCT093 38/16 Q1003
  • 280606Z AUTO 13018G28KT 9999 // SCT093 39/14 Q1003
  • 280500Z AUTO 14017KT 9999 // SCT091 39/14 Q1004

TAF TAF YTNK
Valid from the 28 at 08:00 until the 28 at 20:00 UTC


280620Z 2808/2820 13018KT CAVOK
FM281000 11014KT CAVOK
PROB30
TEMPO 2808/2809 VRB25G40KT 1000 TSRA SCT030 SCT080CB



MET'MAP, your aeronautical weather chart ! - Copyright ORBIFLY December 2007 - Disclaimer

ORBIFLY MET'MAP TEAM :

Programming & Development : Alexandra Zaïnal
Concept & original design : Baudouin d'Aumeries
Assistance for programming : Marc-Olivier Méhu
Technical & hardware support : Manuel Goepfert

Contact : metmap@orbifly.com




SOURCES & CREDITS :

   NOAA       Earth
Advisory